Weather in Nosovo

Russia / Pskov Oblast     57°06′35″N   27°49′08″E
temp.,
°C
wind,
m/s
gust,
m/s
humid.,
%
clouds,
%
prec.,
mm/h
press.,
hPa
HPBL,
m
18 october, mon
mon1800:00+4w39945 0.0 1010214
03:00+2wsw410925 0.0 1011217
06:00+2wsw513850 0.0 1011387
09:00+3w614835 0.0 1012577
12:00+7wnw7116423 0.0 10131358
15:00+8wnw71061100 0.3 10131400
18:00+5wnw5107498 0.1 1015417
21:00+3wnw4108511 0.1 1016314
19 october, tue
tue1900:00+2wnw49925 0.0 1018249
03:00+1wnw4109310 0.0 1019239
06:000wnw410925 0.0 1021297
09:000wnw511896 0.0 1022365
12:00+4nw57565 0.0 1023838
15:00+6nw56445 0.0 10231107
18:00+2wnw2259100 0.0 102317
21:00+2wsw1161100 0.0 102310
20 october, wed
wed2000:00+2sse3462100 0.0 102280
03:00+2s386792 0.0 1020254
06:00+3sse51192100 0.4 1017484
09:00+4sse71487100 1.1 1013596
12:00+5s71485100 0.3 1009594
15:00+6s71591100 1.9 1005676
18:00+8ssw81694100 2.1 1001708
21:00+10sw81796100 3.3 998759
21 october, thu
thu2100:00+13sw91788100 0.1 9961172
03:00+13sw91885100 0.1 9951123
06:00+13sw91784100 0.0 9951200
09:00+13sw8178598 0.0 994906
12:00+14sw81582100 0.0 9941035
15:00+13ssw71486100 0.1 992815
18:00+12ssw91788100 1.1 9901119
21:00+11sw817805 1.8 9891162
22 october, fri
fri2200:00+11sw122472100 0.4 9871695
03:00+10wsw122276100 1.5 9891566
06:00+10wsw11206972 0.0 9921536
09:00+10wsw91765100 0.0 9951581
12:00+10wsw81471100 0.1 9981560
15:00+10sw6107589 0.1 9991006
18:00+9sw3784100 0.2 1000156
21:00+9s4108891 0.6 1000432